TimeEST,TemperatureF,Dew PointF,Humidity,Sea Level PressureIn,VisibilityMPH,Wind Direction,Wind SpeedMPH,Gust SpeedMPH,PrecipitationIn,Events,Conditions,WindDirDegrees,DateUTC
12:15 AM,33.8,19.4,56,30.00,10.0,NNW,10.4,19.6,N/A,,Overcast,330,2012-12-06 05:15:00
12:35 AM,32.0,19.4,60,30.01,10.0,NNW,8.1,20.7,N/A,,Overcast,330,2012-12-06 05:35:00
12:55 AM,32.0,19.4,60,30.01,10.0,NNW,13.8,23.0,N/A,,Overcast,330,2012-12-06 05:55:00
1:15 AM,32.0,19.4,60,30.02,10.0,NNW,11.5,20.7,N/A,,Overcast,330,2012-12-06 06:15:00
1:35 AM,32.0,19.4,60,30.03,10.0,NNW,11.5,23.0,N/A,,Overcast,340,2012-12-06 06:35:00
1:55 AM,32.0,21.2,64,30.04,10.0,NNW,8.1,23.0,N/A,,Overcast,330,2012-12-06 06:55:00
2:15 AM,32.0,21.2,64,30.04,10.0,NNW,10.4,17.3,N/A,,Overcast,330,2012-12-06 07:15:00
2:35 AM,32.0,21.2,64,30.05,10.0,NW,6.9,-,N/A,,Overcast,320,2012-12-06 07:35:00
2:55 AM,32.0,21.2,64,30.05,10.0,NW,6.9,17.3,N/A,,Overcast,320,2012-12-06 07:55:00
3:15 AM,32.0,21.2,64,30.05,10.0,NNW,11.5,19.6,N/A,,Overcast,330,2012-12-06 08:15:00
3:35 AM,32.0,21.2,64,30.06,10.0,NNW,12.7,21.9,N/A,,Overcast,340,2012-12-06 08:35:00
3:55 AM,32.0,21.2,64,30.07,10.0,NW,11.5,20.7,N/A,,Overcast,310,2012-12-06 08:55:00
4:15 AM,30.2,21.2,69,30.08,10.0,NW,11.5,20.7,N/A,,Overcast,310,2012-12-06 09:15:00
4:35 AM,30.2,19.4,64,30.09,10.0,NW,9.2,16.1,N/A,,Mostly Cloudy,320,2012-12-06 09:35:00
4:55 AM,30.2,19.4,64,30.09,10.0,NW,13.8,19.6,N/A,,Clear,320,2012-12-06 09:55:00
5:15 AM,30.2,19.4,64,30.11,10.0,NW,8.1,16.1,N/A,,Clear,310,2012-12-06 10:15:00
5:35 AM,28.4,19.4,69,30.12,10.0,WNW,8.1,-,N/A,,Clear,300,2012-12-06 10:35:00
5:55 AM,28.4,19.4,69,30.13,10.0,NW,10.4,17.3,N/A,,Clear,310,2012-12-06 10:55:00
6:15 AM,28.4,19.4,69,30.13,10.0,NW,8.1,-,N/A,,Clear,310,2012-12-06 11:15:00
6:35 AM,28.4,19.4,69,30.14,10.0,NNW,9.2,-,N/A,,Clear,330,2012-12-06 11:35:00
7:15 AM,28.4,19.4,69,30.16,10.0,NNW,6.9,20.7,N/A,,Clear,330,2012-12-06 12:15:00
7:35 AM,28.4,19.4,69,30.17,10.0,NNW,11.5,19.6,N/A,,Clear,330,2012-12-06 12:35:00
8:15 AM,28.4,19.4,69,30.19,10.0,NW,10.4,19.6,N/A,,Clear,310,2012-12-06 13:15:00
8:35 AM,28.4,19.4,69,30.19,10.0,NNW,10.4,21.9,N/A,,Clear,330,2012-12-06 13:35:00
8:55 AM,28.4,19.4,69,30.19,10.0,NW,12.7,23.0,N/A,,Clear,320,2012-12-06 13:55:00
9:15 AM,28.4,19.4,69,30.20,10.0,NW,10.4,21.9,N/A,,Clear,320,2012-12-06 14:15:00
9:35 AM,30.2,19.4,64,30.21,10.0,NW,12.7,19.6,N/A,,Clear,320,2012-12-06 14:35:00
9:55 AM,30.2,17.6,60,30.21,10.0,NNW,12.7,24.2,N/A,,Clear,330,2012-12-06 14:55:00
10:35 AM,30.2,19.4,64,30.21,10.0,NNW,12.7,19.6,N/A,,Clear,340,2012-12-06 15:35:00
10:55 AM,30.2,19.4,64,30.21,10.0,NW,10.4,19.6,N/A,,Clear,310,2012-12-06 15:55:00
11:15 AM,32.0,19.4,60,30.22,10.0,WNW,10.4,18.4,N/A,,Clear,300,2012-12-06 16:15:00
11:35 AM,30.2,19.4,64,30.21,10.0,WNW,11.5,18.4,N/A,,Clear,300,2012-12-06 16:35:00
11:55 AM,32.0,19.4,60,30.21,10.0,NW,11.5,18.4,N/A,,Clear,310,2012-12-06 16:55:00
12:15 PM,32.0,15.8,51,30.21,10.0,NNW,10.4,17.3,N/A,,Clear,330,2012-12-06 17:15:00
12:35 PM,32.0,15.8,51,30.20,10.0,NNW,9.2,17.3,N/A,,Clear,330,2012-12-06 17:35:00
12:55 PM,33.8,15.8,48,30.20,10.0,NW,6.9,16.1,N/A,,Clear,320,2012-12-06 17:55:00
1:15 PM,33.8,15.8,48,30.20,10.0,NW,9.2,16.1,N/A,,Clear,320,2012-12-06 18:15:00
1:55 PM,33.8,15.8,48,30.21,10.0,NW,5.8,-,N/A,,Clear,320,2012-12-06 18:55:00
2:15 PM,33.8,15.8,48,30.22,10.0,NNW,9.2,-,N/A,,Clear,330,2012-12-06 19:15:00
2:35 PM,33.8,15.8,48,30.22,10.0,NNW,6.9,-,N/A,,Clear,330,2012-12-06 19:35:00
2:55 PM,33.8,15.8,48,30.22,10.0,NW,9.2,-,N/A,,Clear,320,2012-12-06 19:55:00
3:15 PM,32.0,15.8,51,30.23,10.0,NW,6.9,-,N/A,,Clear,320,2012-12-06 20:15:00
3:35 PM,30.2,17.6,60,30.23,10.0,NW,10.4,-,N/A,,Clear,320,2012-12-06 20:35:00
4:15 PM,30.2,17.6,60,30.24,10.0,NW,3.5,-,N/A,,Clear,320,2012-12-06 21:15:00
4:35 PM,30.2,17.6,60,30.24,10.0,NW,3.5,-,N/A,,Clear,320,2012-12-06 21:35:00
4:55 PM,28.4,17.6,64,30.24,10.0,Calm,Calm,-,N/A,,Clear,0,2012-12-06 21:55:00
5:15 PM,28.4,17.6,64,30.26,10.0,Calm,Calm,-,N/A,,Clear,0,2012-12-06 22:15:00
5:35 PM,28.4,17.6,64,30.27,10.0,Calm,Calm,-,N/A,,Clear,0,2012-12-06 22:35:00
5:55 PM,28.4,17.6,64,30.27,10.0,WNW,3.5,-,N/A,,Clear,300,2012-12-06 22:55:00
6:15 PM,28.4,17.6,64,30.29,10.0,WNW,3.5,-,N/A,,Clear,290,2012-12-06 23:15:00
6:35 PM,28.4,17.6,64,30.29,10.0,Calm,Calm,-,N/A,,Clear,0,2012-12-06 23:35:00
6:55 PM,26.6,19.4,74,30.30,10.0,Calm,Calm,-,N/A,,Clear,0,2012-12-06 23:55:00
7:15 PM,24.8,19.4,80,30.29,10.0,Calm,Calm,-,N/A,,Clear,0,2012-12-07 00:15:00
7:35 PM,24.8,19.4,80,30.29,10.0,Calm,Calm,-,N/A,,Clear,0,2012-12-07 00:35:00
7:55 PM,24.8,19.4,80,30.30,10.0,Calm,Calm,-,N/A,,Clear,0,2012-12-07 00:55:00
8:15 PM,24.8,19.4,80,30.29,10.0,Calm,Calm,-,N/A,,Clear,0,2012-12-07 01:15:00
8:35 PM,24.8,19.4,80,30.29,10.0,Calm,Calm,-,N/A,,Clear,0,2012-12-07 01:35:00
8:55 PM,24.8,17.6,74,30.30,10.0,WNW,3.5,-,N/A,,Clear,300,2012-12-07 01:55:00
9:35 PM,21.2,19.4,93,30.30,10.0,Calm,Calm,-,N/A,,Clear,0,2012-12-07 02:35:00
9:55 PM,21.2,19.4,93,30.29,10.0,Calm,Calm,-,N/A,,Clear,0,2012-12-07 02:55:00
10:15 PM,24.8,19.4,80,30.29,10.0,Calm,Calm,-,N/A,,Clear,0,2012-12-07 03:15:00
10:35 PM,21.2,19.4,93,30.29,10.0,Calm,Calm,-,N/A,,Clear,0,2012-12-07 03:35:00
10:55 PM,21.2,19.4,93,30.29,10.0,Calm,Calm,-,N/A,,Clear,0,2012-12-07 03:55:00
11:15 PM,23.0,19.4,86,30.28,10.0,Calm,Calm,-,N/A,,Clear,0,2012-12-07 04:15:00
11:35 PM,21.2,19.4,93,30.29,10.0,Calm,Calm,-,N/A,,Clear,0,2012-12-07 04:35:00
11:55 PM,21.2,19.4,93,30.29,10.0,Calm,Calm,-,N/A,,Clear,0,2012-12-07 04:55:00